This is the latest recevied weather packets stored in our database for station/object HB9FHL-13. If no packets are shown the sender has not sent any weather packets the latest 10 day(s).
| Time | Temp. | Humidity | Pressure | Rain* | Wind** | Luminosity | Snow |
|---|---|---|---|---|---|---|---|
| 1777672993 | 16.67° C | - | 1022.4 hPa | 0 mm | - | - | - |
| 1777672392 | 17.78° C | - | 1026.2 hPa | 0 mm | - | - | - |
| 1777672092 | 17.22° C | - | 1027.3 hPa | 0 mm | - | - | - |
| 1777671791 | 16.67° C | - | 1024.5 hPa | 0 mm | - | - | - |
| 1777671491 | 16.67° C | - | 1022.4 hPa | 0 mm | - | - | - |
| 1777671190 | 17.78° C | - | 1026.2 hPa | 0 mm | - | - | - |
| 1777670890 | 17.22° C | - | 1020.8 hPa | 0 mm | - | - | - |
| 1777670589 | 17.78° C | - | 1030.3 hPa | 0 mm | - | - | - |
| 1777670289 | 17.78° C | - | 1020.3 hPa | 0 mm | - | - | - |
| 1777669988 | 17.78° C | - | 1026.2 hPa | 0 mm | - | - | - |
| 1777669688 | 17.78° C | - | 1025.1 hPa | 0 mm | - | - | - |
| 1777669387 | 17.78° C | - | 1023.6 hPa | 0 mm | - | - | - |
| 1777669087 | 17.78° C | - | 1022.6 hPa | 0 mm | - | - | - |
| 1777668787 | 17.22° C | - | 1020.8 hPa | 0 mm | - | - | - |
| 1777668486 | 17.22° C | - | 1023.1 hPa | 0 mm | - | - | - |
| 1777668186 | 16.67° C | - | 1023.8 hPa | 0 mm | - | - | - |
| 1777667885 | 16.67° C | - | 1024 hPa | 0 mm | - | - | - |
| 1777667585 | 17.22° C | - | 1027.9 hPa | 0 mm | - | - | - |
| 1777667284 | 16.67° C | - | 1026.6 hPa | 0 mm | - | - | - |
| 1777666984 | 16.11° C | - | 1022.3 hPa | 0 mm | - | - | - |
| 1777666715 | 16.67° C | - | 1021.2 hPa | 0 mm | - | - | - |
| 1777666683 | 16.67° C | - | 1021.2 hPa | 0 mm | - | - | - |
| 1777666383 | 15.56° C | - | 1021.5 hPa | 0 mm | - | - | - |
| 1777666082 | 16.67° C | - | 1025.2 hPa | 0 mm | - | - | - |
| 1777665786 | 16.67° C | - | 1021.7 hPa | 0 mm | - | - | - |
* Rain since midnight (hover to see other rain measurements)
** Current wind speed in m/s (hover to see current wind gust speed)